Location: Bittelbronn
(48.4454°N, 8.5870°E)
Time: 22:59:24
(UTC+00:00)

Meteor 2-5 Rocket - Pass Details

Date: 17 August 2024
Orbit: 833 x 910 km, 81.2° (Epoch: 07 September)

Event Time Altitude Azimuth Distance (km) Brightness Sun altitude
Rises 03:25:43 0° 332° (NNW) 3,488 7.0 -9.2°
Reaches altitude 10° 03:29:30 10° 307° (NW) 2,560 6.0 -8.7°
Maximum altitude 03:32:08 13° 280° (W) 2,331 5.6 -8.3°
Drops below altitude 10° 03:34:46 10° 253° (WSW) 2,573 5.6 -8.0°
Enters shadow 03:35:11 - 249° (WSW) 2,648 5.6 -7.9°
